Time,TemperatureF,DewpointF,PressureIn,WindDirection,WindDirectionDegrees,WindSpeedMPH,WindSpeedGustMPH,Humidity,HourlyPrecipIn,Conditions,Clouds,dailyrainin,SolarRadiationWatts/m^2,SoftwareType,DateUTC
2013-01-05 00:09:00,28.9,25.5,30.36,SW,230,0.0,2.0,87,0.00,,,0.00,0,Wunderground v.1.15,2013-01-05 07:09:00,
2013-01-05 00:19:00,28.8,26.0,30.36,SW,230,0.0,2.0,89,0.00,,,0.00,0,Wunderground v.1.15,2013-01-05 07:19:00,
2013-01-05 00:29:00,28.8,26.0,30.36,SW,230,0.0,2.0,89,0.00,,,0.00,0,Wunderground v.1.15,2013-01-05 07:29:00,
2013-01-05 00:39:00,28.5,25.7,30.36,SW,230,0.0,2.0,89,0.00,,,0.00,0,Wunderground v.1.15,2013-01-05 07:39:00,
2013-01-05 00:49:00,27.8,25.2,30.36,SW,230,0.0,2.0,90,0.00,,,0.00,0,Wunderground v.1.15,2013-01-05 07:49:00,
2013-01-05 00:59:00,28.3,25.7,30.36,SW,230,0.0,2.0,90,0.00,,,0.00,0,Wunderground v.1.15,2013-01-05 07:59:00,
2013-01-05 01:09:00,28.3,25.5,30.36,SW,230,0.0,2.0,89,0.00,,,0.00,0,Wunderground v.1.15,2013-01-05 08:09:00,
2013-01-05 01:19:00,27.8,25.0,30.36,SW,230,0.0,2.0,89,0.00,,,0.00,0,Wunderground v.1.15,2013-01-05 08:19:00,
2013-01-05 01:29:00,26.6,23.8,30.36,SW,230,0.0,2.0,89,0.00,,,0.00,0,Wunderground v.1.15,2013-01-05 08:29:00,
2013-01-05 01:39:00,26.4,23.9,30.37,SW,230,0.0,2.0,90,0.00,,,0.00,0,Wunderground v.1.15,2013-01-05 08:39:00,
2013-01-05 01:49:00,25.8,23.3,30.37,SW,230,0.0,2.0,90,0.00,,,0.00,0,Wunderground v.1.15,2013-01-05 08:49:00,
2013-01-05 01:59:00,25.3,23.0,30.37,SW,230,0.0,2.0,91,0.00,,,0.00,0,Wunderground v.1.15,2013-01-05 08:59:00,
2013-01-05 02:09:00,25.3,23.0,30.37,SW,230,0.0,2.0,91,0.00,,,0.00,0,Wunderground v.1.15,2013-01-05 09:09:00,
2013-01-05 02:19:00,25.4,23.1,30.37,SW,230,0.0,2.0,91,0.00,,,0.00,0,Wunderground v.1.15,2013-01-05 09:19:00,
2013-01-05 02:29:00,24.9,22.4,30.38,SW,230,0.0,2.0,90,0.00,,,0.00,0,Wunderground v.1.15,2013-01-05 09:29:00,
2013-01-05 02:39:00,24.1,21.9,30.38,SW,230,0.0,2.0,91,0.00,,,0.00,0,Wunderground v.1.15,2013-01-05 09:39:00,
2013-01-05 02:49:00,24.2,22.0,30.38,SW,230,0.0,2.0,91,0.00,,,0.00,0,Wunderground v.1.15,2013-01-05 09:49:00,
2013-01-05 02:59:00,26.5,24.8,30.38,SW,230,0.0,2.0,93,0.00,,,0.00,0,Wunderground v.1.15,2013-01-05 09:59:00,
2013-01-05 03:09:00,26.1,23.6,30.38,SW,230,0.0,2.0,90,0.00,,,0.00,0,Wunderground v.1.15,2013-01-05 10:09:00,
2013-01-05 03:19:00,24.5,22.0,30.37,SW,230,0.0,2.0,90,0.00,,,0.00,0,Wunderground v.1.15,2013-01-05 10:19:00,
2013-01-05 03:29:00,23.8,21.3,30.38,SW,230,0.0,2.0,90,0.00,,,0.00,0,Wunderground v.1.15,2013-01-05 10:29:00,
2013-01-05 03:39:00,24.5,22.5,30.38,SW,230,0.0,2.0,92,0.00,,,0.00,0,Wunderground v.1.15,2013-01-05 10:39:00,
2013-01-05 03:49:00,24.4,22.4,30.38,SW,230,0.0,2.0,92,0.00,,,0.00,0,Wunderground v.1.15,2013-01-05 10:49:00,
2013-01-05 03:59:00,23.9,21.7,30.39,SW,230,0.0,2.0,91,0.00,,,0.00,0,Wunderground v.1.15,2013-01-05 10:59:00,
2013-01-05 04:09:00,23.5,21.3,30.38,SW,230,0.0,2.0,91,0.00,,,0.00,0,Wunderground v.1.15,2013-01-05 11:09:00,
2013-01-05 04:19:00,23.6,21.6,30.38,SW,230,0.0,2.0,92,0.00,,,0.00,0,Wunderground v.1.15,2013-01-05 11:19:00,
2013-01-05 04:29:00,23.8,21.8,30.38,SW,230,0.0,2.0,92,0.00,,,0.00,0,Wunderground v.1.15,2013-01-05 11:29:00,
2013-01-05 04:39:00,23.9,21.9,30.38,SW,230,0.0,2.0,92,0.00,,,0.00,0,Wunderground v.1.15,2013-01-05 11:39:00,
2013-01-05 04:49:00,23.8,21.8,30.38,SW,230,0.0,2.0,92,0.00,,,0.00,0,Wunderground v.1.15,2013-01-05 11:49:00,
2013-01-05 04:59:00,24.1,22.4,30.38,SW,230,0.0,2.0,93,0.00,,,0.00,0,Wunderground v.1.15,2013-01-05 11:59:00,
2013-01-05 05:09:00,24.1,22.1,30.38,SW,230,0.0,2.0,92,0.00,,,0.00,0,Wunderground v.1.15,2013-01-05 12:09:00,
2013-01-05 05:19:00,23.8,21.8,30.38,SW,230,0.0,2.0,92,0.00,,,0.00,0,Wunderground v.1.15,2013-01-05 12:19:00,
2013-01-05 05:29:00,23.8,22.1,30.38,SW,230,0.0,2.0,93,0.00,,,0.00,0,Wunderground v.1.15,2013-01-05 12:29:00,
2013-01-05 05:39:00,24.1,22.1,30.39,SW,230,0.0,2.0,92,0.00,,,0.00,0,Wunderground v.1.15,2013-01-05 12:39:00,
2013-01-05 05:49:00,24.4,22.7,30.38,SW,230,0.0,2.0,93,0.00,,,0.00,0,Wunderground v.1.15,2013-01-05 12:49:00,
2013-01-05 05:59:00,24.5,22.8,30.39,SW,230,0.0,2.0,93,0.00,,,0.00,0,Wunderground v.1.15,2013-01-05 12:59:00,
2013-01-05 06:09:00,25.6,23.9,30.39,SW,230,0.0,0.0,93,0.00,,,0.00,0,Wunderground v.1.15,2013-01-05 13:09:00,
2013-01-05 06:19:00,26.3,24.6,30.39,SW,230,0.0,0.0,93,0.00,,,0.00,0,Wunderground v.1.15,2013-01-05 13:19:00,
2013-01-05 06:29:00,25.8,23.0,30.40,SE,138,0.0,0.0,89,0.00,,,0.00,0,Wunderground v.1.15,2013-01-05 13:29:00,
2013-01-05 06:39:00,23.3,20.5,30.40,SE,138,0.0,0.0,89,0.00,,,0.00,0,Wunderground v.1.15,2013-01-05 13:39:00,
2013-01-05 06:49:00,23.7,21.7,30.40,SSE,149,0.0,0.0,92,0.00,,,0.00,0,Wunderground v.1.15,2013-01-05 13:49:00,
2013-01-05 06:59:00,24.9,23.2,30.41,South,186,0.0,0.0,93,0.00,,,0.00,0,Wunderground v.1.15,2013-01-05 13:59:00,
2013-01-05 07:09:00,25.6,23.6,30.41,South,190,0.0,0.0,92,0.00,,,0.00,0,Wunderground v.1.15,2013-01-05 14:09:00,
2013-01-05 07:19:00,25.1,23.1,30.41,South,190,0.0,0.0,92,0.00,,,0.00,5,Wunderground v.1.15,2013-01-05 14:19:00,
2013-01-05 07:29:00,24.9,22.9,30.42,SSW,195,0.0,0.0,92,0.00,,,0.00,11,Wunderground v.1.15,2013-01-05 14:29:00,
2013-01-05 07:39:00,26.0,24.0,30.42,SSW,205,0.0,0.0,92,0.00,,,0.00,16,Wunderground v.1.15,2013-01-05 14:39:00,
2013-01-05 07:49:00,26.9,24.9,30.43,SSW,205,0.0,0.0,92,0.00,,,0.00,26,Wunderground v.1.15,2013-01-05 14:49:00,
2013-01-05 07:59:00,28.1,26.1,30.43,SSW,205,0.0,0.0,92,0.00,,,0.00,46,Wunderground v.1.15,2013-01-05 14:59:00,
2013-01-05 08:09:00,29.2,27.2,30.44,SSW,208,0.0,0.0,92,0.00,,,0.00,74,Wunderground v.1.15,2013-01-05 15:09:00,
2013-01-05 08:19:00,30.3,28.0,30.44,SSW,208,0.0,0.0,91,0.00,,,0.00,121,Wunderground v.1.15,2013-01-05 15:19:00,
2013-01-05 08:29:00,31.6,29.0,30.44,SSW,211,0.0,0.0,90,0.00,,,0.00,155,Wunderground v.1.15,2013-01-05 15:29:00,
2013-01-05 08:39:00,32.3,28.9,30.44,SSW,211,0.0,0.0,87,0.00,,,0.00,192,Wunderground v.1.15,2013-01-05 15:39:00,
2013-01-05 08:49:00,32.7,28.7,30.44,South,170,0.0,0.0,85,0.00,,,0.00,246,Wunderground v.1.15,2013-01-05 15:49:00,
2013-01-05 08:59:00,32.7,28.4,30.45,South,170,0.0,0.0,84,0.00,,,0.00,283,Wunderground v.1.15,2013-01-05 15:59:00,
2013-01-05 09:09:00,33.7,29.4,30.44,South,170,0.0,0.0,84,0.00,,,0.00,306,Wunderground v.1.15,2013-01-05 16:09:00,
2013-01-05 09:19:00,34.4,29.8,30.44,SSW,192,0.0,0.0,83,0.00,,,0.00,332,Wunderground v.1.15,2013-01-05 16:19:00,
2013-01-05 09:29:00,34.8,29.6,30.44,South,186,1.0,1.0,81,0.00,,,0.00,360,Wunderground v.1.15,2013-01-05 16:29:00,
2013-01-05 09:39:00,35.6,30.3,30.44,SSE,156,0.0,0.0,81,0.00,,,0.00,396,Wunderground v.1.15,2013-01-05 16:39:00,
2013-01-05 09:49:00,36.6,30.7,30.44,SSE,148,1.0,1.0,79,0.00,,,0.00,420,Wunderground v.1.15,2013-01-05 16:49:00,
2013-01-05 09:59:00,37.9,31.3,30.44,SSE,148,0.0,0.0,77,0.00,,,0.00,443,Wunderground v.1.15,2013-01-05 16:59:00,
2013-01-05 10:09:00,39.2,31.3,30.44,SSE,148,0.0,0.0,73,0.00,,,0.00,464,Wunderground v.1.15,2013-01-05 17:09:00,
2013-01-05 10:19:00,40.4,31.4,30.44,ENE,65,0.0,0.0,70,0.00,,,0.00,480,Wunderground v.1.15,2013-01-05 17:19:00,
2013-01-05 10:29:00,41.5,31.4,30.44,ESE,104,0.0,0.0,67,0.00,,,0.00,503,Wunderground v.1.15,2013-01-05 17:29:00,
2013-01-05 10:39:00,42.7,31.4,30.44,ENE,64,1.0,1.0,64,0.00,,,0.00,522,Wunderground v.1.15,2013-01-05 17:39:00,
2013-01-05 10:49:00,43.2,31.1,30.43,East,80,2.0,2.0,62,0.00,,,0.00,540,Wunderground v.1.15,2013-01-05 17:49:00,
2013-01-05 10:59:00,44.3,31.3,30.43,ESE,114,0.0,0.0,60,0.00,,,0.00,557,Wunderground v.1.15,2013-01-05 17:59:00,
2013-01-05 11:09:00,45.0,31.1,30.42,South,178,1.0,1.0,58,0.00,,,0.00,573,Wunderground v.1.15,2013-01-05 18:09:00,
2013-01-05 11:19:00,46.1,31.3,30.42,South,183,2.0,2.0,56,0.00,,,0.00,587,Wunderground v.1.15,2013-01-05 18:19:00,
2013-01-05 11:29:00,47.2,31.4,30.41,SSE,157,1.0,3.0,54,0.00,,,0.00,596,Wunderground v.1.15,2013-01-05 18:29:00,
2013-01-05 11:39:00,48.1,30.8,30.41,SE,132,1.0,3.0,51,0.00,,,0.00,605,Wunderground v.1.15,2013-01-05 18:39:00,
2013-01-05 11:49:00,48.6,29.8,30.40,SW,228,1.0,1.0,48,0.00,,,0.00,615,Wunderground v.1.15,2013-01-05 18:49:00,
2013-01-05 11:59:00,49.6,29.6,30.39,West,263,0.0,0.0,46,0.00,,,0.00,621,Wunderground v.1.15,2013-01-05 18:59:00,
2013-01-05 12:09:00,50.0,29.5,30.39,SSE,154,0.0,5.0,45,0.00,,,0.00,626,Wunderground v.1.15,2013-01-05 19:09:00,
2013-01-05 12:19:00,50.7,28.4,30.38,ESE,104,1.0,5.0,42,0.00,,,0.00,628,Wunderground v.1.15,2013-01-05 19:19:00,
2013-01-05 12:29:00,50.7,27.8,30.37,SSE,157,0.0,5.0,41,0.00,,,0.00,629,Wunderground v.1.15,2013-01-05 19:29:00,
2013-01-05 12:39:00,51.7,28.7,30.36,NE,44,0.0,5.0,41,0.00,,,0.00,628,Wunderground v.1.15,2013-01-05 19:39:00,
2013-01-05 12:49:00,52.6,28.3,30.36,SE,134,1.0,1.0,39,0.00,,,0.00,624,Wunderground v.1.15,2013-01-05 19:49:00,
2013-01-05 12:59:00,52.7,27.1,30.35,NE,47,0.0,5.0,37,0.00,,,0.00,619,Wunderground v.1.15,2013-01-05 19:59:00,
2013-01-05 13:09:00,53.2,25.5,30.35,NE,52,0.0,5.0,34,0.00,,,0.00,613,Wunderground v.1.15,2013-01-05 20:09:00,
2013-01-05 13:18:00,53.7,23.7,30.34,NNW,339,1.0,5.0,31,0.00,,,0.00,603,Wunderground v.1.15,2013-01-05 20:18:00,
2013-01-05 13:29:00,54.1,23.3,30.34,NNW,329,2.0,2.0,30,0.00,,,0.00,591,Wunderground v.1.15,2013-01-05 20:29:00,
2013-01-05 13:39:00,54.3,22.7,30.34,NNE,21,1.0,5.0,29,0.00,,,0.00,580,Wunderground v.1.15,2013-01-05 20:39:00,
2013-01-05 13:49:00,54.8,20.5,30.34,NNW,338,1.0,5.0,26,0.00,,,0.00,566,Wunderground v.1.15,2013-01-05 20:49:00,
2013-01-05 13:59:00,55.5,23.7,30.34,North,360,2.0,5.0,29,0.00,,,0.00,552,Wunderground v.1.15,2013-01-05 20:59:00,
2013-01-05 14:09:00,55.5,22.0,30.33,NNW,331,0.0,5.0,27,0.00,,,0.00,534,Wunderground v.1.15,2013-01-05 21:09:00,
2013-01-05 18:09:00,44.1,21.9,30.34,SW,221,0.0,0.0,41,0.00,,,0.00,0,Wunderground v.1.15,2013-01-06 01:09:00,
2013-01-05 18:19:00,44.1,21.3,30.34,SW,221,0.0,0.0,40,0.00,,,0.00,0,Wunderground v.1.15,2013-01-06 01:19:00,
2013-01-05 18:29:00,43.5,21.3,30.34,SW,221,0.0,0.0,41,0.00,,,0.00,0,Wunderground v.1.15,2013-01-06 01:29:00,
2013-01-05 18:39:00,42.8,21.3,30.34,SW,221,0.0,0.0,42,0.00,,,0.00,0,Wunderground v.1.15,2013-01-06 01:39:00,
2013-01-05 18:49:00,41.9,21.0,30.34,SW,221,0.0,0.0,43,0.00,,,0.00,0,Wunderground v.1.15,2013-01-06 01:49:00,
2013-01-05 18:59:00,41.7,20.8,30.35,SW,221,0.0,0.0,43,0.00,,,0.00,0,Wunderground v.1.15,2013-01-06 01:59:00,
2013-01-05 19:09:00,39.9,21.3,30.34,SW,221,0.0,0.0,47,0.00,,,0.00,0,Wunderground v.1.15,2013-01-06 02:09:00,
2013-01-05 19:19:00,37.9,21.4,30.34,SW,221,0.0,0.0,51,0.00,,,0.00,0,Wunderground v.1.15,2013-01-06 02:19:00,
2013-01-05 19:29:00,37.3,21.7,30.34,SW,221,0.0,0.0,53,0.00,,,0.00,0,Wunderground v.1.15,2013-01-06 02:29:00,
2013-01-05 19:39:00,37.0,21.4,30.34,SW,221,0.0,0.0,53,0.00,,,0.00,0,Wunderground v.1.15,2013-01-06 02:39:00,
2013-01-05 19:49:00,36.4,21.8,30.34,SW,221,0.0,0.0,55,0.00,,,0.00,0,Wunderground v.1.15,2013-01-06 02:49:00,
2013-01-05 19:59:00,38.6,22.5,30.34,SW,221,0.0,0.0,52,0.00,,,0.00,0,Wunderground v.1.15,2013-01-06 02:59:00,
2013-01-05 20:09:00,39.0,21.9,30.35,South,184,0.0,0.0,50,0.00,,,0.00,0,Wunderground v.1.15,2013-01-06 03:09:00,
2013-01-05 20:19:00,38.0,21.9,30.35,South,184,0.0,0.0,52,0.00,,,0.00,0,Wunderground v.1.15,2013-01-06 03:19:00,
2013-01-05 20:29:00,38.4,21.8,30.34,SSW,200,0.0,0.0,51,0.00,,,0.00,0,Wunderground v.1.15,2013-01-06 03:29:00,
2013-01-05 20:39:00,38.9,22.3,30.34,SSW,200,0.0,0.0,51,0.00,,,0.00,0,Wunderground v.1.15,2013-01-06 03:39:00,
2013-01-05 20:49:00,37.1,21.5,30.34,SSW,202,0.0,0.0,53,0.00,,,0.00,0,Wunderground v.1.15,2013-01-06 03:49:00,
2013-01-05 20:59:00,36.3,21.7,30.34,SSW,207,0.0,0.0,55,0.00,,,0.00,0,Wunderground v.1.15,2013-01-06 03:59:00,
2013-01-05 21:09:00,36.4,21.3,30.34,SSW,207,0.0,0.0,54,0.00,,,0.00,0,Wunderground v.1.15,2013-01-06 04:09:00,
2013-01-05 21:19:00,37.0,21.0,30.34,SSW,207,0.0,0.0,52,0.00,,,0.00,0,Wunderground v.1.15,2013-01-06 04:19:00,
2013-01-05 21:29:00,37.6,21.1,30.34,SSW,207,0.0,0.0,51,0.00,,,0.00,0,Wunderground v.1.15,2013-01-06 04:29:00,
2013-01-05 21:39:00,38.1,20.6,30.35,SSW,207,0.0,0.0,49,0.00,,,0.00,0,Wunderground v.1.15,2013-01-06 04:39:00,
2013-01-05 21:49:00,37.8,20.3,30.35,SSW,207,0.0,0.0,49,0.00,,,0.00,0,Wunderground v.1.15,2013-01-06 04:49:00,
2013-01-05 21:59:00,35.2,19.8,30.35,SSW,207,0.0,0.0,53,0.00,,,0.00,0,Wunderground v.1.15,2013-01-06 04:59:00,
2013-01-05 22:09:00,32.9,20.1,30.35,SSW,207,0.0,1.0,59,0.00,,,0.00,0,Wunderground v.1.15,2013-01-06 05:09:00,
2013-01-05 22:19:00,32.8,20.4,30.35,SSW,207,0.0,1.0,60,0.00,,,0.00,0,Wunderground v.1.15,2013-01-06 05:19:00,
2013-01-05 22:29:00,31.9,20.0,30.35,SSW,207,0.0,1.0,61,0.00,,,0.00,0,Wunderground v.1.15,2013-01-06 05:29:00,
2013-01-05 22:39:00,31.3,20.2,30.35,SSW,207,0.0,1.0,63,0.00,,,0.00,0,Wunderground v.1.15,2013-01-06 05:39:00,
2013-01-05 22:49:00,33.8,21.8,30.35,SSW,207,0.0,1.0,61,0.00,,,0.00,0,Wunderground v.1.15,2013-01-06 05:49:00,
2013-01-05 22:59:00,35.5,22.6,30.34,South,171,0.0,1.0,59,0.00,,,0.00,0,Wunderground v.1.15,2013-01-06 05:59:00,
2013-01-05 23:09:00,35.9,23.4,30.34,South,177,0.0,1.0,60,0.00,,,0.00,0,Wunderground v.1.15,2013-01-06 06:09:00,
2013-01-05 23:19:00,35.7,23.9,30.34,SSE,167,0.0,1.0,62,0.00,,,0.00,0,Wunderground v.1.15,2013-01-06 06:19:00,
2013-01-05 23:29:00,35.7,23.9,30.34,South,188,0.0,1.0,62,0.00,,,0.00,0,Wunderground v.1.15,2013-01-06 06:29:00,
2013-01-05 23:39:00,35.7,23.9,30.34,South,188,0.0,1.0,62,0.00,,,0.00,0,Wunderground v.1.15,2013-01-06 06:39:00,
2013-01-05 23:49:00,35.8,24.4,30.34,South,188,0.0,1.0,63,0.00,,,0.00,0,Wunderground v.1.15,2013-01-06 06:49:00,
2013-01-05 23:59:00,36.2,24.0,30.33,South,188,0.0,1.0,61,0.00,,,0.00,0,Wunderground v.1.15,2013-01-06 06:59:00,